Location: Home
(51.5204°N, 2.5456°W)
Time: 14:35:03
(UTC+00:00)

N. Korean satellite - Pass Details

Date: 17 October 2019
Orbit: 456 x 506 km, 97.2° (Epoch: 13 November)

Event Time Altitude Azimuth Distance (km) Brightness Sun altitude
Rises 19:16:38 0° 209° (SSW) 2,467 10.6 -10.6°
Reaches altitude 10° 19:19:24 10° 235° (SW) 1,601 10.1 -11.0°
Maximum altitude 19:21:22 14° 270° (W) 1,357 10.2 -11.3°
Drops below altitude 10° 19:23:20 10° 305° (NW) 1,615 10.1 -11.6°
Sets 19:26:10 0° 331° (NNW) 2,504 10.6 -12.1°
